Weather History for KBEH - August, 2014

Change the Weather History Date:

Monday, August 11, 2014

  Actual Average Record
Temperature  
Mean Temperature 68 °F -  
Max Temperature 73 °F 79 °F 88 °F (1988)
Min Temperature 64 °F 57 °F 45 °F (1982)
Cooling Degree Days 4    
Growing Degree Days 18 (Base 50)    
Moisture  
Dew Point 66 °F    
Average Humidity 92    
Maximum Humidity 100    
Minimum Humidity 73    
Precipitation  
Precipitation 0.62 in - - ()
Sea Level Pressure  
Sea Level Pressure 29.86 in    
Wind  
Wind Speed 4 mph (NE)    
Max Wind Speed 9 mph    
Max Gust Speed -    
Visibility 4 miles    
Events Rain    
Averages and records for this station are not official NWS values.
T = Trace of Precipitation, MM = Missing Value Source: NWS Daily Summary

Daily Weather History Graph

Daily Weather History Graph

Search for Another Location

Airport or City:

Trip Planner

Search our weather history database for the weather conditions in past years. The results will help you decide how hot, cold, wet, or windy it might be!

Date:

Astronomy

Aug. 11, 2014 Rise Set
Actual Time 6:49 AM EDT 8:51 PM EDT
Civil Twilight 6:18 AM EDT 9:22 PM EDT
Nautical Twilight 5:41 AM EDT 9:59 PM EDT
Astronomical Twilight 5:00 AM EDT 10:40 PM EDT
Moon 9:17 PM EDT (8/11) 7:55 AM EDT (8/11)
Length of Visible Light 15h 03m
Length of Day
14h 02m
Full, 99% of the Moon is Illuminated
Aug 11
Full
Aug 17
Last Quarter
Aug 25
New
Sep 2
First Quarter
Sep 8
Full

Hourly Weather History & Observations

Time (EDT) Temp. Dew Point Humidity Pressure Visibility Wind Dir Wind Speed Gust Speed Precip Events Conditions
12:53 AM 73.0 °F 64.9 °F 76% 29.94 in 9.0 mi ESE 4.6 mph - N/A   Overcast
1:53 AM 73.0 °F 64.0 °F 73% 29.93 in 9.0 mi SE 5.8 mph - N/A   Overcast
2:53 AM 70.0 °F 66.0 °F 87% 29.91 in 7.0 mi ESE 5.8 mph - 0.00 in   Overcast
3:48 AM 69.8 °F 64.4 °F 83% 29.92 in 2.5 mi ESE 9.2 mph - 0.05 in Rain Rain
3:53 AM 69.1 °F 66.0 °F 90% 29.91 in 3.0 mi ESE 6.9 mph - 0.07 in Rain Rain
4:21 AM 68.0 °F 66.0 °F 93% 29.91 in 2.5 mi ENE 8.1 mph - 0.06 in Rain Rain
4:28 AM 69.1 °F 66.0 °F 90% 29.91 in 4.0 mi ENE 8.1 mph - 0.07 in Rain Light Rain
4:53 AM 68.0 °F 66.9 °F 96% 29.90 in 4.0 mi Calm Calm - 0.07 in   Overcast
5:53 AM 68.0 °F 66.0 °F 93% 29.91 in 4.0 mi North 3.5 mph - 0.02 in   Overcast
6:29 AM 66.9 °F 66.0 °F 97% 29.92 in 2.5 mi NE 3.5 mph - 0.04 in Rain Rain
6:39 AM 66.9 °F 66.0 °F 97% 29.92 in 3.0 mi NNE 3.5 mph - 0.05 in Rain Light Rain
6:44 AM 66.9 °F 66.0 °F 97% 29.92 in 1.8 mi NNE 4.6 mph - 0.12 in Rain Heavy Rain
6:53 AM 66.9 °F 66.0 °F 97% 29.91 in 1.5 mi NE 3.5 mph - 0.20 in Rain Heavy Rain
7:01 AM 66.0 °F 64.9 °F 96% 29.92 in 3.0 mi NNE 4.6 mph - 0.00 in Rain Light Rain
7:08 AM 66.0 °F 64.9 °F 96% 29.92 in 7.0 mi Variable 4.6 mph - 0.00 in   Overcast
7:17 AM 66.9 °F 66.0 °F 97% 29.92 in 7.0 mi Variable 5.8 mph - 0.01 in   Overcast
7:29 AM 66.9 °F 66.0 °F 97% 29.92 in 8.0 mi Variable 4.6 mph - 0.01 in   Overcast
7:53 AM 66.0 °F 64.9 °F 96% 29.91 in 2.5 mi Variable 3.5 mph - 0.05 in Rain Light Rain
8:08 AM 66.0 °F 64.9 °F 96% 29.92 in 5.0 mi NNE 9.2 mph - 0.00 in Rain Light Rain
8:16 AM 66.0 °F 64.9 °F 96% 29.91 in 6.0 mi Calm Calm - 0.01 in Rain Light Rain
8:32 AM 66.9 °F 64.9 °F 93% 29.90 in 9.0 mi Variable 5.8 mph - 0.01 in   Overcast
8:53 AM 66.9 °F 64.9 °F 93% 29.89 in 9.0 mi Calm Calm - 0.01 in   Mostly Cloudy
9:53 AM 66.0 °F 64.9 °F 96% 29.88 in 4.0 mi East 4.6 mph - 0.03 in Rain Light Rain
10:09 AM 66.0 °F 64.9 °F 96% 29.87 in 2.0 mi ENE 3.5 mph - 0.05 in Rain Rain
10:42 AM 66.0 °F 64.9 °F 96% 29.86 in 4.0 mi East 5.8 mph - 0.14 in Rain Light Rain
10:53 AM 66.0 °F 64.9 °F 96% 29.85 in 4.0 mi East 5.8 mph - 0.15 in Rain Light Rain
11:53 AM 68.0 °F 66.0 °F 93% 29.86 in 6.0 mi ENE 3.5 mph - 0.02 in   Mostly Cloudy
12:53 PM 71.1 °F 68.0 °F 90% 29.86 in 9.0 mi Variable 3.5 mph - N/A   Partly Cloudy
1:24 PM 73.0 °F 69.1 °F 87% 29.87 in 8.0 mi NE 4.6 mph - N/A   Mostly Cloudy
1:38 PM 71.1 °F 68.0 °F 90% 29.87 in 7.0 mi Variable 4.6 mph - N/A   Mostly Cloudy
1:53 PM 71.1 °F 68.0 °F 90% 29.86 in 5.0 mi Variable 3.5 mph - N/A   Overcast
2:14 PM 70.0 °F 66.9 °F 90% 29.87 in 5.0 mi WNW 5.8 mph - N/A   Overcast
2:34 PM 72.0 °F 68.0 °F 87% 29.86 in 6.0 mi Variable 3.5 mph - N/A   Mostly Cloudy
2:53 PM 73.0 °F 68.0 °F 84% 29.85 in 6.0 mi WNW 8.1 mph - N/A   Haze
3:05 PM 72.0 °F 68.0 °F 87% 29.86 in 4.0 mi NNW 6.9 mph - N/A   Mostly Cloudy
3:53 PM 71.1 °F 66.9 °F 87% 29.84 in 3.0 mi North 5.8 mph - N/A   Overcast
4:53 PM 72.0 °F 66.9 °F 84% 29.81 in 4.0 mi Variable 3.5 mph - N/A   Haze
5:02 PM 73.0 °F 66.9 °F 81% 29.82 in 4.0 mi Variable 4.6 mph - N/A   Haze
5:53 PM 72.0 °F 66.9 °F 84% 29.81 in 5.0 mi WNW 6.9 mph - N/A   Haze
6:05 PM 72.0 °F 66.9 °F 84% 29.82 in 5.0 mi West 6.9 mph - N/A   Haze
6:53 PM 69.1 °F 66.0 °F 90% 29.80 in 4.0 mi WNW 6.9 mph - N/A   Mostly Cloudy
7:53 PM 69.1 °F 66.0 °F 90% 29.79 in 5.0 mi Calm Calm - N/A   Mostly Cloudy
8:02 PM 69.1 °F 66.0 °F 90% 29.79 in 5.0 mi Calm Calm - N/A   Partly Cloudy
8:53 PM 66.9 °F 64.9 °F 93% 29.78 in 3.0 mi Calm Calm - N/A   Clear
9:01 PM 66.0 °F 64.9 °F 96% 29.78 in 2.5 mi Calm Calm - N/A   Clear
9:12 PM 66.0 °F 64.9 °F 96% 29.78 in 3.0 mi Calm Calm - N/A   Partly Cloudy
9:27 PM 66.0 °F 64.9 °F 96% 29.78 in 3.0 mi Calm Calm - N/A   Mostly Cloudy
9:37 PM 66.0 °F 64.9 °F 96% 29.79 in 2.0 mi Calm Calm - N/A   Overcast
9:53 PM 66.0 °F 64.9 °F 96% 29.78 in 2.5 mi Calm Calm - N/A   Overcast
10:03 PM 66.0 °F 64.9 °F 96% 29.78 in 3.0 mi Calm Calm - N/A   Mostly Cloudy
10:18 PM 66.0 °F 64.9 °F 96% 29.80 in 2.5 mi Calm Calm - N/A   Scattered Clouds
10:28 PM 66.0 °F 64.9 °F 96% 29.80 in 3.0 mi South 3.5 mph - N/A   Mostly Cloudy
10:45 PM 66.0 °F 64.9 °F 96% 29.78 in 2.0 mi Calm Calm - N/A   Overcast
10:53 PM 66.0 °F 64.9 °F 96% 29.78 in 2.0 mi Calm Calm - N/A   Mostly Cloudy
11:30 PM 64.9 °F 64.0 °F 97% 29.77 in 1.8 mi Calm Calm - N/A   Mostly Cloudy
11:53 PM 64.9 °F 64.9 °F 100% 29.77 in 2.5 mi Calm Calm - N/A   Overcast